Powrót do katalogu

SL-14 DEB

AktywnyPO
NORAD 45323·DEBRIS·🇷🇺 Russia

Wystrzelony Aug 15, 1991 z Plesetsk Cosmodrome

Loading…

Następne Przeloty (najbliższe 24 godziny)

TLE

ŚwieżeSource: Space-Track

Epoka: Sep 13, 2026, 11:58 UTC

1 45323U 91056BM  26256.49871845  .00000478  00000-0  11401-2 0  9993
2 45323  82.5271  64.0063 0006677 200.2989 159.7871 13.21032950315057

Śledź SL-14 DEB w czasie rzeczywistym z AllMySat

Download on the App Store